Weather History for Deering, AK

Change the Weather History Date:

Saturday, March 16, 2013

  Actual Average (PAOT) Record (PAOT)
Temperature  
Mean Temperature 8 °F -  
Max Temperature 17 °F - 32 °F (1990)
Min Temperature 5 °F -7 °F -58 °F (1930)
Degree Days  
Heating Degree Days 56 65  
Month to date heating degree days 1040  
Since 1 July heating degree days 11282  
Cooling Degree Days 0    
Month to date cooling degree days  
Year to date cooling degree days  
Moisture  
Dew Point 0 °F    
Average Humidity 67    
Maximum Humidity 73    
Minimum Humidity 55    
Precipitation  
Precipitation 0.00 in 0.01 in 0.26 in (2002)
Month to date precipitation 0.26  
Year to date precipitation 1.54  
Snow  
Snow 0.00 in 0.10 in 7.50 in (1932)
Month to date snowfall 3.6  
Since 1 July snowfall 51.2  
Snow Depth -    
Sea Level Pressure  
Sea Level Pressure 29.94 in    
Wind  
Wind Speed 17 mph (ENE)    
Max Wind Speed 30 mph    
Max Gust Speed 30 mph    
Visibility 8 miles    
Events      
T = Trace of Precipitation, MM = Missing Value Source: NWS Daily Summary

Daily Weather History Graph

Daily Weather History Graph

Search for Another Location

Airport:

Trip Planner

Search our weather history database for the weather conditions in past years. The results will help you decide how hot, cold, wet, or windy it might be!

Date:

Astronomy

Mar. 16, 2013 Rise Set
Actual Time 9:04 AM AKDT 8:56 PM AKDT
Civil Twilight 8:13 AM AKDT 9:47 PM AKDT
Nautical Twilight 7:11 AM AKDT 10:49 PM AKDT
Astronomical Twilight 6:01 AM AKDT 12:01 AM AKDT
Moon 9:28 AM AKDT (3/16) 3:29 AM AKDT (3/16)
Length of Visible Light 13h 33m
Length of Day
11h 51m
Waxing Crescent, 24% of the Moon is Illuminated
Mar 16
Waxing Crescent
Mar 19
First Quarter
Mar 27
Full
Apr 2
Last Quarter
Apr 10
New

Hourly Weather History & Observations

Time (AKDT) Temp. Windchill Dew Point Humidity Pressure Visibility Wind Dir Wind Speed Gust Speed Precip Events Conditions
12:53 AM 8.1 °F -10.2 °F -2.9 °F 61% 29.81 in 10.0 mi East 17.3 mph 21.9 mph N/A   Clear
1:53 AM 6.1 °F -14.3 °F -2.9 °F 67% 29.83 in 10.0 mi East 20.7 mph - N/A   Clear
2:53 AM 6.1 °F -12.8 °F -2.9 °F 67% 29.84 in 10.0 mi East 17.3 mph 21.9 mph N/A   Clear
3:53 AM 5.0 °F -10.8 °F -4.0 °F 66% 29.85 in 10.0 mi NNE 11.5 mph - N/A   Partly Cloudy
4:53 AM 5.0 °F -9.1 °F -5.1 °F 63% 29.86 in 10.0 mi NNE 9.2 mph - N/A   Partly Cloudy
5:53 AM 8.1 °F -11.2 °F -5.1 °F 55% 29.86 in 10.0 mi East 19.6 mph 29.9 mph N/A   Scattered Clouds
6:53 AM 6.1 °F -9.5 °F -5.1 °F 60% 29.87 in 10.0 mi NNE 11.5 mph 23.0 mph N/A   Partly Cloudy
7:53 AM 5.0 °F -4.1 °F -5.1 °F 63% 29.88 in 10.0 mi Variable 4.6 mph - N/A   Partly Cloudy
8:53 AM 5.0 °F -10.8 °F -4.0 °F 66% 29.91 in 10.0 mi NE 11.5 mph 17.3 mph N/A   Mostly Cloudy
9:53 AM 6.1 °F -0.9 °F -2.9 °F 67% 29.91 in 10.0 mi Variable 3.5 mph - N/A   Partly Cloudy
10:32 AM 6.8 °F -13.8 °F -2.2 °F 67% 29.91 in 9.0 mi ENE 21.9 mph - N/A   Mostly Cloudy
10:53 AM 6.1 °F -13.8 °F -2.0 °F 69% 29.91 in 5.0 mi East 19.6 mph - N/A   Haze
11:53 AM 7.0 °F -9.8 °F -2.0 °F 67% 29.94 in 10.0 mi ENE 13.8 mph - N/A   Clear
12:37 PM 6.8 °F -15.5 °F -0.4 °F 72% 29.93 in 4.0 mi ENE 26.5 mph - N/A   Haze
12:53 PM 8.1 °F -14.9 °F -0.0 °F 70% 29.94 in 2.5 mi ENE 29.9 mph - N/A   Haze
1:11 PM 8.6 °F -13.8 °F -0.4 °F 67% 29.94 in 3.0 mi ENE 28.8 mph - N/A   Haze
1:53 PM 8.1 °F -14.2 °F 1.0 °F 73% 29.95 in 4.0 mi East 27.6 mph - N/A   Haze
2:53 PM 10.0 °F -11.5 °F 1.0 °F 67% 29.96 in 6.0 mi East 27.6 mph - N/A   Haze
3:08 PM 10.4 °F -11.4 °F 1.4 °F 67% 29.95 in 2.0 mi East 28.8 mph - N/A   Haze
3:27 PM 10.4 °F -8.2 °F 1.4 °F 67% 29.97 in 5.0 mi East 19.6 mph - N/A   Haze
3:53 PM 10.9 °F -8.8 °F 1.9 °F 67% 29.97 in 10.0 mi East 23.0 mph - N/A   Clear
4:53 PM 12.9 °F -5.7 °F 3.0 °F 65% 29.98 in 10.0 mi East 21.9 mph - N/A   Overcast
5:53 PM 12.9 °F -7.6 °F 5.0 °F 71% 29.98 in 7.0 mi East 27.6 mph - N/A   Partly Cloudy
6:53 PM 12.9 °F -2.8 °F 5.0 °F 71% 30.00 in 10.0 mi ENE 15.0 mph - N/A   Clear
7:53 PM 12.0 °F -3.4 °F 3.9 °F 70% 30.01 in 10.0 mi East 13.8 mph - N/A   Clear
8:53 PM 10.9 °F - 3.0 °F 70% 30.03 in 10.0 mi Calm Calm - N/A   Partly Cloudy
9:53 PM 12.0 °F -0.4 °F 3.9 °F 70% 30.05 in 10.0 mi East 9.2 mph - N/A   Mostly Cloudy
10:53 PM 10.9 °F -5.4 °F 3.0 °F 70% 30.07 in 10.0 mi ENE 15.0 mph - N/A   Mostly Cloudy
11:53 PM 12.9 °F -0.9 °F 5.0 °F 71% 30.08 in 10.0 mi North 11.5 mph 20.7 mph N/A   Partly Cloudy